Location: Çayiçi
(36.4667°N, 30.2333°E)
Time: 02:37:47
(UTC+00:00)

IGS 5A - Pass Details

Date: 09 February 2023
Orbit: 578 x 583 km, 97.5° (Epoch: 27 March)

Event Time Altitude Azimuth Distance (km) Brightness Sun altitude
Exits shadow 17:15:28 37° 23° (NNE) 914 4.2 -21.0°
Drops below altitude 10° 17:18:13 10° 359° (N) 1,901 6.0 -21.6°
Sets 17:20:24 0° 354° (N) 2,803 7.0 -22.0°
